KISSLEGG Weather Reports


time (UTC)temp
C
wind
direction
speed
KPH
gust
KPH
rain 1hr
cm
rain 24hr
cm
rain mn
cm
humidity
%
barometer
mb
20260506113217 15 117 0.0 0.0 0.00 0.00 0.00 64 1004.9
20260506110210 16 252 0.0 0.0 0.00 0.00 0.00 71 1005.3
20260506100213 14 69 0.0 0.0 0.00 0.00 0.00 72 1005.5
20260506093211 14 321 0.0 0.0 0.00 0.00 0.00 75 1005.5
20260506090211 14 279 0.0 0.0 0.00 0.00 0.00 77 1006.0
20260506083211 13 355 0.0 0.0 0.00 0.00 0.00 82 1005.9
20260506080212 12 351 0.0 0.0 0.00 0.00 0.00 86 1005.8
20260506073211 11 355 0.0 0.0 0.00 0.00 0.00 91 1006.0
20260506070212 11 40 0.0 0.0 0.00 0.00 0.00 91 1005.9
20260506060210 10 163 0.0 0.0 0.00 0.00 0.00 93 1006.1
20260506050211 8 163 0.0 0.0 0.00 0.00 0.00 94 1006.4
20260506043211 8 163 0.0 0.0 0.00 0.00 0.00 93 1006.5
20260506040211 8 163 0.0 0.0 0.00 0.00 0.00 93 1007.0
20260506033211 8 163 0.0 0.0 0.00 0.00 0.00 93 1007.1
20260506030212 8 163 0.0 0.0 0.00 0.00 0.00 93 1007.5
20260506023211 8 163 0.0 0.0 0.00 0.00 0.00 94 1007.6
20260506020212 8 163 0.0 0.0 0.00 0.00 0.00 94 1007.9
20260506013211 9 217 0.0 0.0 0.00 0.00 0.00 95 1007.9
20260506010213 9 217 0.0 0.0 0.00 0.00 0.00 95 1008.2
20260506003209 9 360 0.0 0.0 0.00 0.00 0.00 95 1008.4
20260506000211 9 246 0.0 0.0 0.00 0.00 0.00 95 1008.3
20260505233209 9 247 0.0 0.0 0.00 0.00 0.00 95 1008.7
20260505230209 9 242 0.0 0.0 0.00 0.00 0.00 95 1008.6
20260505223210 10 360 0.0 0.0 0.00 0.00 0.00 95 1008.9
20260505220209 10 360 0.0 0.0 0.00 0.00 0.00 94 1008.8
20260505213211 10 360 0.0 0.0 0.00 0.00 0.08 94 1008.8
20260505210215 10 360 0.0 0.0 0.00 0.00 0.08 94 1008.9
20260505203209 10 207 0.0 0.0 0.00 0.00 0.08 93 1008.9
20260505200210 10 210 0.0 0.0 0.00 0.00 0.08 92 1009.2
20260505193209 11 360 0.0 0.0 0.00 0.00 0.08 90 1008.9
20260505190215 12 360 0.0 0.0 0.00 0.00 0.00 84 1008.2
20260505183212 13 360 0.0 0.0 0.00 0.00 0.00 84 1007.8
20260505180211 14 360 0.0 0.0 0.00 0.00 0.00 87 1007.1
20260505173210 14 360 0.0 0.0 0.00 0.00 0.00 88 1007.0
20260505170210 15 360 0.0 0.0 0.00 0.00 0.00 86 1006.7
20260505163211 15 360 0.0 0.0 0.00 0.00 0.00 83 1006.5
20260505153210 15 360 0.0 0.0 0.00 0.00 0.00 79 1006.5
20260505150216 16 360 0.0 0.0 0.00 0.00 0.00 72 1006.6
20260505140210 16 350 0.0 0.0 0.00 0.00 0.00 69 1006.3
20260505130210 16 269 0.0 0.0 0.00 0.00 0.00 74 1006.6
20260505123210 14 360 0.0 0.0 0.00 0.00 0.00 81 1006.8
20260505120210 13 260 0.0 0.0 0.00 0.00 0.00 83 1006.8